Notices

What's New in latest Release from April 7th, 2021:

- Updated Glossary, including Speed of Maximum Gust, and Total Hourly Precipitation

- Updated national and regional climate services offices contacts and prices information

- Addition of station inventory lists for 1981-2010, 1971-2000, and 1961-1990 Normals.

If you haven't already, please take our survey and provide feedback about our website: https://eccc.sondage-survey.ca/f/LanguageSelection.aspx?s=442ca660-fcf1-47c0-95a9-59707d6fd709

Hourly Data Report for November 30, 2020

SHEARWATER RCS
NOVA SCOTIA
Current Station Operator: ECCC - MSC

44°37'47.000" N
63°30'48.000" W
24.00 m
8205092
71264
AAW

Download Data

Hourly Data (November 2020)
Hourly Data Report for November 30, 2020
TIME
LST
Temp Definition
°C
Dew Point Definition
°C
Rel Hum Definition
%
Precip. Amount Definition
mm

Wind Dir Definition
10's deg

Wind Spd Definition
km/h
Visibility Definition
km
Stn Press Definition
kPa
Hmdx Definition


Wind Chill Definition


Weather Definition


00:00 2.6 0.2 84 0.0 31 5   102.02     LegendNANA
01:00 2.0 0.2 88 0.0 1 4   102.00     LegendNANA
02:00 0.8 -0.2 93 0.0 4 3   102.07     LegendNANA
03:00 -0.1 -1.1 93 0.0   0   102.12     LegendNANA
04:00 -0.8 -1.9 92 0.0 2 1   102.19   -1 LegendNANA
05:00 0.1 -0.7 95 0.0 35 2   102.28     LegendNANA
06:00 -0.1 -1.2 92 0.0 4 2   102.34   -1 LegendNANA
07:00 0.2 -1.2 90 0.0 5 9   102.39     LegendNANA
08:00 0.5 -1.2 88 0.0 6 9   102.44     LegendNANA
09:00 3.4 1.4 87 0.0 6 11   102.46     LegendNANA
10:00 8.3 2.8 68 0.0 14 14   102.49     LegendNANA
11:00 8.8 3.4 69 0.0 15 20   102.48     LegendNANA
12:00 9.0 3.4 68 0.0 14 19   102.44     LegendNANA
13:00 8.9 3.1 67 0.0 14 19   102.41     LegendNANA
14:00 8.8 4.1 73 0.0 13 15   102.41     LegendNANA
15:00 8.9 4.7 74 0.0 13 16   102.36     LegendNANA
16:00 9.0 5.4 78 0.0 12 12   102.36     LegendNANA
17:00 9.0 6.0 81 0.0 11 10   102.36     LegendNANA
18:00 9.2 6.6 84 0.0 13 17   102.40     LegendNANA
19:00 9.3 6.9 85 0.0 12 21   102.35     LegendNANA
20:00 9.4 7.3 87 0.0 11 22   102.29     LegendNANA
21:00 9.5 7.4 87 0.0 11 21   102.23     LegendNANA
22:00 10.0 8.0 88 0.0 11 22   102.19     LegendNANA
23:00 10.7 8.8 88 0.0 12 26   102.12     LegendNANA

Notes on Data Quality.

Legend

  • E = Estimated
  • M = Missing
  • NA = Not Available*
  • [empty] = Indicates an unobserved value
Date modified: